Voltar ao catálogo

FENGYUN 1C DEB

AtivoSSO
NORAD 36986·DEBRIS·🇨🇳 China

Lançado May 10, 1999 de Taiyuan Satellite Launch Center

Loading…

Próximas Passagens (próximas 24 horas)

TLE

AtualizadoSource: Space-Track

Época: Sep 12, 2026, 16:22 UTC

1 36986U 99025EBS 26255.68234757  .00002160  00000-0  10716-2 0  9995
2 36986  99.1334 333.5018 0085848 189.0604 170.9024 14.16367449856206

Acompanhe FENGYUN 1C DEB em tempo real com AllMySat

Download on the App Store